This demonstration page uses our WeatherBlox Daily Observations layout. Learn more.

Left ArrowRight Arrow

Hourly Observations for February 18, 2019

Temp ( °F °C ) Dew Point ( °F °C ) Humidity (%) Winds ( mph kmh ) Pressure ( in mb ) Visibility ( mi km ) Precip ( " mm )
12:53 am 00:53 Cloudy 33 0.6 29 -1.7 85 85 W 6 9 29.94 1014 10 16.0934 N/A
1:53 am 01:53 Cloudy 33 0.6 29 -1.7 85 85 W 8 13 29.97 1015 10 16.0934 N/A
2:41 am 02:41 Cloudy 33 0.6 29 -1.7 85 85 W 12 19 30.01 1016 10 16.0934 N/A
2:53 am 02:53 Cloudy 33 0.6 29 -1.7 85 85 W 10 17 30 1016 10 16.0934 N/A
3:53 am 03:53 Cloudy 33 0.6 29 -1.7 85 85 W 5 7 30.01 1016 10 16.0934 N/A
4:43 am 04:43 Cloudy with Light Wintry Mix 33 0.6 29 -1.7 85 85 W 12 19 30.04 1017 7 11.26538 N/A
4:50 am 04:50 Cloudy 34 1 28 -2 81 81 W 8 13 30.04 1017 9 14.48406 N/A
4:53 am 04:53 Cloudy 33 0.6 28 -2.2 82 82 W 12 19 30.03 1017 10 16.0934 N/A
5:46 am 05:46 Cloudy 33 0.6 27 -2.8 78 78 W 12 19 30.07 1018 10 16.0934 N/A
5:53 am 05:53 Cloudy 33 0.6 27 -2.8 78 78 W 12 19 30.06 1018 10 16.0934 N/A
6:53 am 06:53 Cloudy 32 undefined 25 -3.9 75 75 W 12 19 30.1 1019 10 16.0934 N/A
7:07 am 07:07 Cloudy 32 undefined 24 -4.4 73 73 W 15 24 30.12 1020 10 16.0934 N/A
7:53 am 07:53 Cloudy 32 undefined 24 -4.4 73 73 W 13 20 30.14 1021 10 16.0934 N/A
8:53 am 08:53 Cloudy 32 undefined 24 -4.4 73 73 W 9 15 30.18 1022 10 16.0934 N/A
9:53 am 09:53 Cloudy 32 undefined 23 -5 69 69 W 10 17 30.21 1023 10 16.0934 N/A
10:53 am 10:53 Cloudy 33 0.6 24 -4.4 70 70 W 12 19 30.24 1024 10 16.0934 N/A
11:53 am 11:53 Cloudy 33 0.6 24 -4.4 70 70 WNW 14 22 30.28 1026 10 16.0934 N/A
12:53 pm 12:53 Cloudy 33 0.6 23 -5 66 66 W 10 17 30.31 1026 10 16.0934 N/A
1:05 pm 13:05 Cloudy 33 0.6 24 -4.4 70 70 W 15 24 30.32 1027 10 16.0934 N/A
1:16 pm 13:16 Cloudy 33 0.6 24 -4.4 70 70 W 12 19 30.32 1027 10 16.0934 N/A
1:24 pm 13:24 Cloudy 33 0.6 23 -5 66 66 W 13 20 30.32 1027 10 16.0934 N/A
1:53 pm 13:53 Cloudy 33 0.6 24 -4.4 70 70 W 13 20 30.33 1027 10 16.0934 N/A
2:43 pm 14:43 Cloudy with Light Snow 32 undefined 24 -4.4 73 73 W 10 17 30.36 1028 9 14.48406 N/A
2:53 pm 14:53 Cloudy with Light Snow 32 undefined 25 -3.9 75 75 W 10 17 30.35 1028 3 4.82802 N/A
3:30 pm 15:30 Cloudy with Light Snow 32 undefined 26 -3.3 79 79 W 8 13 30.38 1029 2 3.21868 N/A
3:46 pm 15:46 Cloudy with Light Snow 31 -0.6 26 -3.3 82 82 NW 12 19 30.4 1029 3 4.82802 N/A
3:53 pm 15:53 Cloudy with Light Snow 30 -1.1 26 -3.3 85 85 NW 10 17 30.38 1029 2.5 4.02335 N/A
3:59 pm 15:59 Cloudy with Light Snow 31 -0.6 26 -3.3 82 82 WNW 9 15 30.4 1029 3 4.82802 N/A
4:17 pm 16:17 Cloudy with Light Snow 31 -0.6 26 -3.3 82 82 WNW 12 19 30.42 1030 7 11.26538 N/A
4:53 pm 16:53 Cloudy 32 undefined 25 -3.9 75 75 VRB 7 11 30.4 1030 10 16.0934 N/A
5:53 pm 17:53 Cloudy 31 -0.6 23 -5 72 72 NW 13 20 30.44 1031 10 16.0934 N/A
6:53 pm 18:53 Cloudy 30 -1.1 21 -6.1 69 69 NW 12 19 30.49 1032 10 16.0934 N/A
7:53 pm 19:53 Cloudy 29 -1.7 19 -7.2 66 66 NW 6 9 30.52 1034 10 16.0934 N/A
8:53 pm 20:53 Cloudy 29 -1.7 20 -6.7 69 69 NW 6 9 30.53 1034 10 16.0934 N/A
9:53 pm 21:53 Clear 27 -2.8 19 -7.2 72 72 NNW 3 6 30.55 1035 10 16.0934 N/A
10:53 pm 22:53 Clear 26 -3.3 19 -7.2 75 75 N N/A 30.56 1035 10 16.0934 N/A
11:53 pm 23:53 Clear 23 -5 19 -7.2 85 85 N N/A 30.57 1035 10 16.0934 N/A

Powered by AerisWeather